{"data":{"norad_id":65136,"intl_designator":"2025-171E","name":"KUIPER-00097","alt_names":[],"object_type":"PAYLOAD","status":"ACTIVE","operator":null,"country":"US","launch_date":"2025-08-11","launch_site_code":"AFETR","launch_vehicle":null,"mission":null,"orbit_class":"UNKNOWN","rcs_meters":null,"size_class":null,"mass_kg":null,"dimensions":null,"purposes":[],"wikipedia_slug":null,"has_3d_model":false,"image_url":null,"decayed_at":null,"tle_current":{"epoch":"2026-09-21T13:53:27.908736Z","epoch_age_seconds":71832,"freshness":"FRESH","line1":"1 65136U 25171E   26264.57879524  .00002273  00000+0  32704-3 0  9996","line2":"2 65136  51.9030  14.5148 0000504  91.3758 268.7262 14.79930463 61855","mean_motion":14.79930463,"eccentricity":5.04e-5,"inclination_deg":51.903,"raan_deg":14.5148,"arg_perigee_deg":91.3758,"mean_anomaly_deg":268.7262,"bstar":0.00032704,"rev_number":6185,"period_min":97.301868973015,"perigee_km":629.19045076262,"apogee_km":629.89682497091,"semimajor_km":7007.6806378668,"source":"CELESTRAK","updated_at":"2026-09-22T09:00:30.150085Z"}}}